When you browse on this site, cookies collect data to enhance your experience and personalize the content and advertising you see.
Visit our Privacy Policy to learn more. By continuing to use the site, you agree to this use of cookies and data.
  • Em Portugal
  • Lista de países
  • Para 7 dias
  • Temperatura da água
  • Mapas de satélite
  • Mapa do tempo
  • Widgets de tempo
  • user-avatar
    Iniciar Sessão

    Previsão horária em Hasselt

    Hoje, 17 Dezembro, Segunda-feira

    Tempo Temperatura Precipitação Vento Pressão Humidade
    00:00 +3°C° 0 mm 2 m/s 756 mmHg 95%
    01:00 +2°C° 0 mm 3 m/s 756 mmHg 94%
    02:00 +2°C° 0 mm 3 m/s 756 mmHg 94%
    03:00 +1°C° 0 mm 4 m/s 757 mmHg 93%
    04:00 +1°C° 0 mm 4 m/s 757 mmHg 93%
    05:00 +1°C° 0 mm 4 m/s 757 mmHg 93%
    06:00 +3°C° 0 mm 4 m/s 757 mmHg 95%
    07:00 +3°C° 0.1 mm 4 m/s 758 mmHg 94%
    08:00 +2°C° 0.1 mm 5 m/s 759 mmHg 94%
    09:00 +3°C° 0.1 mm 5 m/s 759 mmHg 94%
    10:00 +3°C° 0 mm 5 m/s 760 mmHg 92%
    11:00 +5°C° 0 mm 5 m/s 760 mmHg 90%
    12:00 +5°C° 0 mm 5 m/s 761 mmHg 88%
    13:00 +5°C° 0 mm 5 m/s 761 mmHg 89%
    14:00 +5°C° 0 mm 4 m/s 762 mmHg 91%
    15:00 +4°C° 0 mm 4 m/s 762 mmHg 92%
    16:00 +4°C° 0 mm 4 m/s 763 mmHg 93%
    17:00 +4°C° 0 mm 4 m/s 763 mmHg 94%
    18:00 +4°C° 0 mm 4 m/s 764 mmHg 95%
    19:00 +4°C° 0 mm 4 m/s 764 mmHg 94%
    20:00 +3°C° 0 mm 4 m/s 764 mmHg 94%
    21:00 +3°C° 0 mm 4 m/s 765 mmHg 94%
    22:00 +3°C° 0 mm 4 m/s 765 mmHg 94%
    23:00 +3°C° 0 mm 4 m/s 765 mmHg 93%

    Amanhã, 18 Dezembro, Terça-feira

    Tempo Temperatura Precipitação Vento Pressão Humidade
    00:00 +3°C° 0 mm 4 m/s 765 mmHg 93%
    01:00 +3°C° 0 mm 4 m/s 765 mmHg 93%
    02:00 +3°C° 0 mm 4 m/s 764 mmHg 93%
    03:00 +3°C° 0 mm 4 m/s 764 mmHg 93%
    04:00 +3°C° 0 mm 4 m/s 764 mmHg 93%
    05:00 +3°C° 0 mm 4 m/s 764 mmHg 93%
    06:00 +3°C° 0 mm 4 m/s 763 mmHg 92%
    07:00 +4°C° 0 mm 4 m/s 763 mmHg 92%
    08:00 +4°C° 0 mm 4 m/s 763 mmHg 91%
    09:00 +4°C° 0 mm 4 m/s 763 mmHg 91%
    10:00 +5°C° 0 mm 4 m/s 762 mmHg 87%
    11:00 +6°C° 0 mm 5 m/s 762 mmHg 83%
    12:00 +6°C° 0 mm 5 m/s 761 mmHg 80%
    13:00 +6°C° 0 mm 5 m/s 761 mmHg 78%
    14:00 +5°C° 0 mm 5 m/s 760 mmHg 77%
    15:00 +5°C° 0 mm 5 m/s 759 mmHg 75%
    16:00 +5°C° 0 mm 5 m/s 759 mmHg 72%
    17:00 +3°C° 0 mm 6 m/s 758 mmHg 70%
    18:00 +3°C° 0 mm 6 m/s 758 mmHg 67%
    19:00 +3°C° 0 mm 6 m/s 757 mmHg 66%
    20:00 +3°C° 0 mm 6 m/s 757 mmHg 64%
    21:00 +4°C° 0 mm 6 m/s 756 mmHg 63%
    22:00 +4°C° 0 mm 6 m/s 756 mmHg 65%
    23:00 +4°C° 0 mm 6 m/s 756 mmHg 67%

    Depois de amanhã, 19 Dezembro, Quarta-feira

    Tempo Temperatura Precipitação Vento Pressão Humidade
    00:00 +4°C° 0 mm 6 m/s 755 mmHg 70%
    01:00 +4°C° 0.2 mm 6 m/s 755 mmHg 74%
    02:00 +4°C° 0.2 mm 6 m/s 755 mmHg 78%
    03:00 +4°C° 0.2 mm 6 m/s 755 mmHg 82%
    04:00 +5°C° 0.3 mm 5 m/s 755 mmHg 85%
    05:00 +5°C° 0.3 mm 5 m/s 755 mmHg 87%
    06:00 +5°C° 0.3 mm 5 m/s 755 mmHg 90%
    07:00 +6°C° 0 mm 4 m/s 756 mmHg 90%
    08:00 +6°C° 0 mm 4 m/s 756 mmHg 90%
    09:00 +6°C° 0 mm 4 m/s 756 mmHg 90%
    10:00 +7°C° 0 mm 4 m/s 756 mmHg 87%
    11:00 +7°C° 0 mm 5 m/s 756 mmHg 84%
    12:00 +8°C° 0 mm 5 m/s 756 mmHg 81%
    13:00 +8°C° 0 mm 4 m/s 756 mmHg 82%
    14:00 +8°C° 0 mm 4 m/s 756 mmHg 84%
    15:00 +7°C° 0 mm 4 m/s 755 mmHg 85%
    16:00 +7°C° 0.1 mm 4 m/s 756 mmHg 86%
    17:00 +7°C° 0.1 mm 4 m/s 756 mmHg 86%
    18:00 +7°C° 0.1 mm 4 m/s 756 mmHg 87%
    19:00 +7°C° 0 mm 4 m/s 756 mmHg 86%
    20:00 +6°C° 0 mm 4 m/s 756 mmHg 86%
    21:00 +6°C° 0 mm 4 m/s 756 mmHg 86%
    22:00 +6°C° 0 mm 4 m/s 756 mmHg 87%
    23:00 +5°C° 0 mm 3 m/s 757 mmHg 89%

    20 Dezembro, Quinta-feira

    Tempo Temperatura Precipitação Vento Pressão Humidade
    00:00 +5°C° 0 mm 3 m/s 757 mmHg 90%
    01:00 +4°C° 0 mm 3 m/s 757 mmHg 91%
    02:00 +4°C° 0 mm 4 m/s 757 mmHg 92%
    03:00 +4°C° 0 mm 4 m/s 757 mmHg 93%
    04:00 +4°C° 0 mm 4 m/s 757 mmHg 93%
    05:00 +4°C° 0 mm 4 m/s 757 mmHg 93%
    06:00 +3°C° 0 mm 4 m/s 758 mmHg 93%
    07:00 +4°C° 0 mm 4 m/s 758 mmHg 92%
    08:00 +3°C° 0 mm 5 m/s 758 mmHg 91%
    09:00 +3°C° 0 mm 5 m/s 758 mmHg 90%
    10:00 +5°C° 0 mm 5 m/s 758 mmHg 87%
    11:00 +4°C° 0 mm 6 m/s 758 mmHg 84%
    12:00 +5°C° 0 mm 6 m/s 758 mmHg 81%
    13:00 +5°C° 0 mm 6 m/s 758 mmHg 81%
    14:00 +5°C° 0 mm 7 m/s 758 mmHg 81%
    15:00 +5°C° 0 mm 7 m/s 757 mmHg 81%
    16:00 +5°C° 0.2 mm 7 m/s 757 mmHg 81%
    17:00 +5°C° 0.2 mm 7 m/s 757 mmHg 82%
    18:00 +5°C° 0.2 mm 8 m/s 756 mmHg 82%
    19:00 +5°C° 0.6 mm 7 m/s 756 mmHg 84%
    20:00 +6°C° 0.6 mm 7 m/s 756 mmHg 86%
    21:00 +6°C° 0.6 mm 7 m/s 756 mmHg 87%
    22:00 +7°C° 0.8 mm 6 m/s 756 mmHg 88%
    23:00 +7°C° 0.8 mm 6 m/s 756 mmHg 90%

    21 Dezembro, Sexta-feira

    Tempo Temperatura Precipitação Vento Pressão Humidade
    00:00 +7°C° 0.8 mm 5 m/s 756 mmHg 91%
    01:00 +7°C° 0.2 mm 5 m/s 755 mmHg 91%
    02:00 +7°C° 0.2 mm 4 m/s 755 mmHg 92%
    03:00 +7°C° 0.2 mm 4 m/s 755 mmHg 92%
    04:00 +7°C° 0.6 mm 4 m/s 754 mmHg 93%
    05:00 +8°C° 0.6 mm 3 m/s 754 mmHg 93%
    06:00 +8°C° 0.6 mm 3 m/s 753 mmHg 94%
    07:00 +8°C° 1.9 mm 5 m/s 753 mmHg 93%
    08:00 +8°C° 1.9 mm 6 m/s 752 mmHg 92%
    09:00 +9°C° 1.9 mm 7 m/s 752 mmHg 90%
    10:00 +9°C° 1.7 mm 8 m/s 751 mmHg 88%
    11:00 +10°C° 1.7 mm 9 m/s 750 mmHg 86%
    12:00 +9°C° 1.7 mm 10 m/s 749 mmHg 83%
    13:00 +9°C° 0.8 mm 10 m/s 749 mmHg 83%
    14:00 +11°C° 0.8 mm 10 m/s 750 mmHg 83%
    15:00 +11°C° 0.8 mm 9 m/s 750 mmHg 82%
    16:00 +10°C° 0 mm 9 m/s 751 mmHg 81%
    17:00 +9°C° 0 mm 8 m/s 753 mmHg 79%
    18:00 +8°C° 0 mm 7 m/s 754 mmHg 78%
    19:00 +8°C° 0 mm 7 m/s 754 mmHg 80%
    20:00 +8°C° 0 mm 7 m/s 755 mmHg 82%
    21:00 +8°C° 0 mm 7 m/s 756 mmHg 83%
    22:00 +8°C° 0.1 mm 6 m/s 756 mmHg 84%
    23:00 +8°C° 0.1 mm 6 m/s 756 mmHg 85%

    22 Dezembro, Sábado

    Tempo Temperatura Precipitação Vento Pressão Humidade
    00:00 +8°C° 0.1 mm 6 m/s 755 mmHg 85%
    01:00 +8°C° 0.5 mm 6 m/s 755 mmHg 86%
    02:00 +8°C° 0.5 mm 7 m/s 755 mmHg 87%
    03:00 +8°C° 0.5 mm 7 m/s 755 mmHg 87%
    04:00 +8°C° 0.4 mm 7 m/s 755 mmHg 87%
    05:00 +9°C° 0.4 mm 7 m/s 755 mmHg 86%
    06:00 +9°C° 0.4 mm 7 m/s 755 mmHg 85%
    07:00 +8°C° 0 mm 7 m/s 756 mmHg 84%
    08:00 +8°C° 0 mm 7 m/s 757 mmHg 82%
    09:00 +8°C° 0 mm 7 m/s 758 mmHg 81%
    10:00 +8°C° 0 mm 7 m/s 758 mmHg 79%
    11:00 +9°C° 0 mm 7 m/s 759 mmHg 76%
    12:00 +9°C° 0 mm 7 m/s 759 mmHg 74%
    13:00 +9°C° 0 mm 6 m/s 760 mmHg 76%
    14:00 +8°C° 0 mm 5 m/s 760 mmHg 78%
    15:00 +8°C° 0 mm 4 m/s 760 mmHg 80%
    16:00 +8°C° 0 mm 4 m/s 761 mmHg 84%
    17:00 +8°C° 0 mm 4 m/s 761 mmHg 88%
    18:00 +7°C° 0 mm 4 m/s 761 mmHg 92%
    19:00 +8°C° 0.1 mm 3 m/s 761 mmHg 93%
    20:00 +8°C° 0.1 mm 3 m/s 761 mmHg 94%
    21:00 +8°C° 0.1 mm 3 m/s 762 mmHg 95%
    22:00 +8°C° 0.1 mm 3 m/s 762 mmHg 95%
    23:00 +8°C° 0.1 mm 3 m/s 762 mmHg 96%
    Mostrar mais